Year,Month,Day,Hour,Minute,Value (Times are PST for temperature in C)
2016,03,24,00,00,7.70
2016,03,24,00,01,7.70
2016,03,24,00,02,7.70
2016,03,24,00,03,7.70
2016,03,24,00,04,7.70
2016,03,24,00,05,7.70
2016,03,24,00,06,7.70
2016,03,24,00,08,7.60
2016,03,24,00,10,7.60
2016,03,24,00,11,7.60
2016,03,24,00,13,7.50
2016,03,24,00,15,7.50
2016,03,24,00,16,7.60
2016,03,24,00,17,7.60
2016,03,24,00,18,7.60
2016,03,24,00,20,7.60
2016,03,24,00,21,7.60
2016,03,24,00,22,7.60
2016,03,24,00,23,7.70
2016,03,24,00,24,7.70
2016,03,24,00,25,7.70
2016,03,24,00,27,7.70
2016,03,24,00,28,7.70
2016,03,24,00,29,7.80
2016,03,24,00,30,7.80
2016,03,24,00,32,7.90
2016,03,24,00,34,7.90
2016,03,24,00,35,7.90
2016,03,24,00,36,7.90
2016,03,24,00,37,7.90
2016,03,24,00,39,7.90
2016,03,24,00,40,7.90
2016,03,24,00,41,7.90
2016,03,24,00,42,7.90
2016,03,24,00,44,7.90
2016,03,24,00,45,7.90
2016,03,24,00,46,7.90
2016,03,24,00,47,7.90
2016,03,24,00,48,7.90
2016,03,24,00,49,7.90
2016,03,24,00,51,7.90
2016,03,24,00,52,7.90
2016,03,24,00,53,7.90
2016,03,24,00,54,7.90
2016,03,24,00,56,7.90
2016,03,24,00,57,7.90
2016,03,24,00,58,7.90
2016,03,24,00,59,7.90
2016,03,24,01,00,7.90
2016,03,24,01,01,7.90
2016,03,24,01,03,7.80
2016,03,24,01,04,7.80
2016,03,24,01,05,7.80
2016,03,24,01,06,7.70
2016,03,24,01,08,7.70
2016,03,24,01,09,7.70
2016,03,24,01,10,7.70
2016,03,24,01,11,7.70
2016,03,24,01,13,7.70
2016,03,24,01,14,7.70
2016,03,24,01,15,7.70
2016,03,24,01,16,7.70
2016,03,24,01,18,7.70
2016,03,24,01,20,7.70
2016,03,24,01,21,7.70
2016,03,24,01,22,7.70
2016,03,24,01,23,7.70
2016,03,24,01,25,7.70
2016,03,24,01,26,7.70
2016,03,24,01,27,7.70
2016,03,24,01,28,7.70
2016,03,24,01,30,7.70
2016,03,24,01,31,7.70
2016,03,24,01,32,7.70
2016,03,24,01,33,7.60
2016,03,24,01,35,7.60
2016,03,24,01,36,7.60
2016,03,24,01,37,7.60
2016,03,24,01,38,7.60
2016,03,24,01,40,7.60
2016,03,24,01,41,7.60
2016,03,24,01,42,7.50
2016,03,24,01,43,7.50
2016,03,24,01,45,7.50
2016,03,24,01,46,7.40
2016,03,24,01,47,7.40
2016,03,24,01,48,7.40
2016,03,24,01,49,7.30
2016,03,24,01,50,7.30
2016,03,24,01,52,7.30
2016,03,24,01,53,7.20
2016,03,24,01,54,7.20
2016,03,24,01,55,7.20
2016,03,24,01,56,7.20
2016,03,24,01,57,7.20
2016,03,24,01,59,7.20
2016,03,24,02,00,7.20
2016,03,24,02,01,7.20
2016,03,24,02,02,7.20
2016,03,24,02,04,7.20
2016,03,24,02,05,7.20
2016,03,24,02,06,7.30
2016,03,24,02,07,7.30
2016,03,24,02,08,7.30
2016,03,24,02,09,7.30
2016,03,24,02,11,7.30
2016,03,24,02,12,7.30
2016,03,24,02,13,7.30
2016,03,24,02,14,7.30
2016,03,24,02,16,7.30
2016,03,24,02,17,7.30
2016,03,24,02,18,7.30
2016,03,24,02,19,7.30
2016,03,24,02,20,7.30
2016,03,24,02,21,7.30
2016,03,24,02,23,7.30
2016,03,24,02,24,7.30
2016,03,24,02,25,7.30
2016,03,24,02,26,7.30
2016,03,24,02,27,7.30
2016,03,24,02,28,7.30
2016,03,24,02,29,7.30
2016,03,24,02,30,7.30
2016,03,24,02,32,7.20
2016,03,24,02,33,7.20
2016,03,24,02,34,7.20
2016,03,24,02,35,7.20
2016,03,24,02,37,7.20
2016,03,24,02,38,7.20
2016,03,24,02,39,7.20
2016,03,24,02,40,7.20
2016,03,24,02,41,7.20
2016,03,24,02,42,7.30
2016,03,24,02,44,7.30
2016,03,24,02,45,7.30
2016,03,24,02,46,7.30
2016,03,24,02,47,7.30
2016,03,24,02,48,7.30
2016,03,24,02,49,7.30
2016,03,24,02,51,7.30
2016,03,24,02,52,7.30
2016,03,24,02,53,7.30
2016,03,24,02,54,7.40
2016,03,24,02,56,7.40
2016,03,24,02,57,7.40
2016,03,24,02,58,7.40
2016,03,24,02,59,7.40
2016,03,24,03,00,7.40
2016,03,24,03,01,7.40
2016,03,24,03,03,7.40
2016,03,24,03,04,7.40
2016,03,24,03,05,7.30
2016,03,24,03,06,7.30
2016,03,24,03,07,7.30
2016,03,24,03,08,7.30
2016,03,24,03,09,7.30
2016,03,24,03,10,7.30
2016,03,24,03,11,7.30
2016,03,24,03,12,7.30
2016,03,24,03,13,7.30
2016,03,24,03,14,7.30
2016,03,24,03,15,7.30
2016,03,24,03,16,7.30
2016,03,24,03,17,7.30
2016,03,24,03,18,7.30
2016,03,24,03,19,7.20
2016,03,24,03,20,7.20
2016,03,24,03,21,7.20
2016,03,24,03,22,7.20
2016,03,24,03,23,7.20
2016,03,24,03,24,7.20
2016,03,24,03,25,7.20
2016,03,24,03,26,7.20
2016,03,24,03,27,7.20
2016,03,24,03,28,7.20
2016,03,24,03,29,7.20
2016,03,24,03,30,7.20
2016,03,24,03,31,7.20
2016,03,24,03,32,7.20
2016,03,24,03,33,7.20
2016,03,24,03,34,7.20
2016,03,24,03,35,7.20
2016,03,24,03,37,7.20
2016,03,24,03,38,7.20
2016,03,24,03,39,7.20
2016,03,24,03,40,7.20
2016,03,24,03,42,7.20
2016,03,24,03,43,7.20
2016,03,24,03,44,7.20
2016,03,24,03,45,7.20
2016,03,24,03,46,7.20
2016,03,24,03,47,7.20
2016,03,24,03,48,7.20
2016,03,24,03,49,7.20
2016,03,24,03,50,7.20
2016,03,24,03,51,7.20
2016,03,24,03,52,7.20
2016,03,24,03,53,7.20
2016,03,24,03,54,7.20
2016,03,24,03,55,7.20
2016,03,24,03,56,7.20
2016,03,24,03,57,7.20
2016,03,24,03,58,7.20
2016,03,24,03,59,7.20
2016,03,24,04,00,7.20
2016,03,24,04,01,7.20
2016,03,24,04,02,7.20
2016,03,24,04,03,7.20
2016,03,24,04,04,7.20
2016,03,24,04,05,7.20
2016,03,24,04,06,7.20
2016,03,24,04,07,7.20
2016,03,24,04,08,7.20
2016,03,24,04,09,7.20
2016,03,24,04,10,7.20
2016,03,24,04,11,7.20
2016,03,24,04,12,7.20
2016,03,24,04,13,7.20
2016,03,24,04,14,7.20
2016,03,24,04,15,7.20
2016,03,24,04,16,7.20
2016,03,24,04,17,7.20
2016,03,24,04,18,7.20
2016,03,24,04,19,7.30
2016,03,24,04,20,7.30
2016,03,24,04,21,7.30
2016,03,24,04,22,7.30
2016,03,24,04,23,7.40
2016,03,24,04,24,7.40
2016,03,24,04,25,7.40
2016,03,24,04,26,7.40
2016,03,24,04,27,7.40
2016,03,24,04,28,7.40
2016,03,24,04,29,7.30
2016,03,24,04,30,7.30
2016,03,24,04,31,7.30
2016,03,24,04,32,7.30
2016,03,24,04,33,7.30
2016,03,24,04,34,7.30
2016,03,24,04,35,7.20
2016,03,24,04,36,7.20
2016,03,24,04,37,7.20
2016,03,24,04,38,7.20
2016,03,24,04,39,7.20
2016,03,24,04,40,7.20
2016,03,24,04,41,7.20
2016,03,24,04,42,7.20
2016,03,24,04,43,7.20
2016,03,24,04,44,7.20
2016,03,24,04,45,7.20
2016,03,24,04,46,7.20
2016,03,24,04,47,7.20
2016,03,24,04,48,7.20
2016,03,24,04,49,7.20
2016,03,24,04,50,7.10
2016,03,24,04,51,7.10
2016,03,24,04,52,7.10
2016,03,24,04,53,7.00
2016,03,24,04,54,7.00
2016,03,24,04,55,7.00
2016,03,24,04,56,7.00
2016,03,24,04,57,7.00
2016,03,24,04,58,6.90
2016,03,24,04,59,6.90
2016,03,24,05,00,6.90
2016,03,24,05,01,6.90
2016,03,24,05,02,6.90
2016,03,24,05,03,6.90
2016,03,24,05,04,6.90
2016,03,24,05,05,6.90
2016,03,24,05,06,6.90
2016,03,24,05,07,6.90
2016,03,24,05,08,6.90
2016,03,24,05,09,6.90
2016,03,24,05,10,6.90
2016,03,24,05,11,6.90
2016,03,24,05,12,6.90
2016,03,24,05,13,6.90
2016,03,24,05,14,6.90
2016,03,24,05,15,6.90
2016,03,24,05,16,7.00
2016,03,24,05,17,7.00
2016,03,24,05,18,7.00
2016,03,24,05,19,7.00
2016,03,24,05,20,7.00
2016,03,24,05,21,7.00
2016,03,24,05,22,7.00
2016,03,24,05,23,7.00
2016,03,24,05,24,7.10
2016,03,24,05,25,7.10
2016,03,24,05,26,7.10
2016,03,24,05,27,7.10
2016,03,24,05,28,7.10
2016,03,24,05,29,7.20
2016,03,24,05,30,7.20
2016,03,24,05,31,7.20
2016,03,24,05,32,7.20
2016,03,24,05,33,7.20
2016,03,24,05,34,7.20
2016,03,24,05,35,7.20
2016,03,24,05,36,7.20
2016,03,24,05,37,7.20
2016,03,24,05,38,7.20
2016,03,24,05,39,7.20
2016,03,24,05,40,7.20
2016,03,24,05,41,7.20
2016,03,24,05,42,7.20
2016,03,24,05,43,7.10
2016,03,24,05,44,7.10
2016,03,24,05,45,7.10
2016,03,24,05,46,7.00
2016,03,24,05,47,7.00
2016,03,24,05,48,6.90
2016,03,24,05,49,6.90
2016,03,24,05,50,6.80
2016,03,24,05,51,6.80
2016,03,24,05,52,6.80
2016,03,24,05,53,6.80
2016,03,24,05,54,6.70
2016,03,24,05,55,6.70
2016,03,24,05,56,6.60
2016,03,24,05,57,6.60
2016,03,24,05,58,6.50
2016,03,24,05,59,6.50
2016,03,24,06,00,6.50
2016,03,24,06,01,6.40
2016,03,24,06,02,6.40
2016,03,24,06,03,6.40
2016,03,24,06,04,6.30
2016,03,24,06,05,6.30
2016,03,24,06,06,6.30
2016,03,24,06,07,6.30
2016,03,24,06,08,6.30
2016,03,24,06,09,6.30
2016,03,24,06,10,6.30
2016,03,24,06,11,6.30
2016,03,24,06,12,6.20
2016,03,24,06,13,6.20
2016,03,24,06,15,6.20
2016,03,24,06,16,6.20
2016,03,24,06,17,6.20
2016,03,24,06,19,6.20
2016,03,24,06,20,6.20
2016,03,24,06,21,6.20
2016,03,24,06,22,6.20
2016,03,24,06,23,6.20
2016,03,24,06,24,6.20
2016,03,24,06,26,6.20
2016,03,24,06,27,6.20
2016,03,24,06,28,6.10
2016,03,24,06,29,6.10
2016,03,24,06,30,6.10
2016,03,24,06,31,6.10
2016,03,24,06,33,6.10
2016,03,24,06,34,6.10
2016,03,24,06,35,6.10
2016,03,24,06,36,6.10
2016,03,24,06,38,5.90
2016,03,24,06,39,5.90
2016,03,24,06,40,5.90
2016,03,24,06,41,5.90
2016,03,24,06,42,5.90
2016,03,24,06,43,5.90
2016,03,24,06,45,5.90
2016,03,24,06,46,5.90
2016,03,24,06,47,5.90
2016,03,24,06,48,5.90
2016,03,24,06,49,5.90
2016,03,24,06,50,6.10
2016,03,24,06,51,6.10
2016,03,24,06,52,6.10
2016,03,24,06,54,6.10
2016,03,24,06,55,6.10
2016,03,24,06,56,6.10
2016,03,24,06,57,6.20
2016,03,24,06,59,6.20
2016,03,24,07,00,6.20
2016,03,24,07,01,6.20
2016,03,24,07,02,6.20
2016,03,24,07,03,6.30
2016,03,24,07,04,6.30
2016,03,24,07,06,6.30
2016,03,24,07,07,6.40
2016,03,24,07,08,6.40
2016,03,24,07,09,6.50
2016,03,24,07,10,6.50
2016,03,24,07,11,6.60
2016,03,24,07,13,6.70
2016,03,24,07,15,6.80
2016,03,24,07,16,6.80
2016,03,24,07,17,6.90
2016,03,24,07,18,6.90
2016,03,24,07,20,7.00
2016,03,24,07,21,7.00
2016,03,24,07,22,7.00
2016,03,24,07,23,7.00
2016,03,24,07,25,7.10
2016,03,24,07,26,7.10
2016,03,24,07,27,7.10
2016,03,24,07,28,7.10
2016,03,24,07,30,7.20
2016,03,24,07,31,7.20
2016,03,24,07,32,7.20
2016,03,24,07,33,7.20
2016,03,24,07,35,7.20
2016,03,24,07,36,7.20
2016,03,24,07,37,7.20
2016,03,24,07,38,7.20
2016,03,24,07,39,7.20
2016,03,24,07,40,7.20
2016,03,24,07,42,7.20
2016,03,24,07,43,7.20
2016,03,24,07,44,7.30
2016,03,24,07,45,7.30
2016,03,24,07,47,7.30
2016,03,24,07,48,7.30
2016,03,24,07,49,7.30
2016,03,24,07,50,7.30
2016,03,24,07,52,7.30
2016,03,24,07,53,7.30
2016,03,24,07,54,7.30
2016,03,24,07,55,7.30
2016,03,24,07,56,7.30
2016,03,24,07,57,7.30
2016,03,24,07,58,7.30
2016,03,24,07,59,7.30
2016,03,24,08,00,7.30
2016,03,24,08,01,7.30
2016,03,24,08,02,7.30
2016,03,24,08,04,7.30
2016,03,24,08,05,7.20
2016,03,24,08,06,7.20
2016,03,24,08,07,7.20
2016,03,24,08,09,7.20
2016,03,24,08,10,7.20
2016,03,24,08,11,7.20
2016,03,24,08,12,7.20
2016,03,24,08,14,7.20
2016,03,24,08,15,7.20
2016,03,24,08,16,7.20
2016,03,24,08,17,7.20
2016,03,24,08,19,7.20
2016,03,24,08,20,7.20
2016,03,24,08,21,7.20
2016,03,24,08,22,7.20
2016,03,24,08,24,7.20
2016,03,24,08,25,7.20
2016,03,24,08,26,7.20
2016,03,24,08,27,7.20
2016,03,24,08,28,7.20
2016,03,24,08,29,7.20
2016,03,24,08,31,7.20
2016,03,24,08,32,7.20
2016,03,24,08,33,7.30
2016,03,24,08,34,7.30
2016,03,24,08,35,7.30
2016,03,24,08,36,7.30
2016,03,24,08,37,7.30
2016,03,24,08,38,7.30
2016,03,24,08,39,7.30
2016,03,24,08,40,7.40
2016,03,24,08,41,7.40
2016,03,24,08,42,7.40
2016,03,24,08,43,7.40
2016,03,24,08,44,7.40
2016,03,24,08,45,7.40
2016,03,24,08,46,7.50
2016,03,24,08,47,7.50
2016,03,24,08,48,7.50
2016,03,24,08,50,7.50
2016,03,24,08,51,7.50
2016,03,24,08,52,7.50
2016,03,24,08,53,7.50
2016,03,24,08,54,7.50
2016,03,24,08,55,7.50
2016,03,24,08,56,7.50
2016,03,24,08,57,7.50
2016,03,24,08,58,7.50
2016,03,24,08,59,7.50
2016,03,24,09,00,7.50
2016,03,24,09,01,7.50
2016,03,24,09,02,7.50
2016,03,24,09,03,7.50
2016,03,24,09,04,7.50
2016,03,24,09,05,7.50
2016,03,24,09,06,7.50
2016,03,24,09,07,7.50
2016,03,24,09,08,7.50
2016,03,24,09,09,7.50
2016,03,24,09,11,7.50
2016,03,24,09,12,7.50
2016,03,24,09,13,7.50
2016,03,24,09,14,7.50
2016,03,24,09,16,7.50
2016,03,24,09,17,7.50
2016,03,24,09,18,7.60
2016,03,24,09,19,7.60
2016,03,24,09,20,7.60
2016,03,24,09,21,7.60
2016,03,24,09,22,7.60
2016,03,24,09,23,7.60
2016,03,24,09,25,7.60
2016,03,24,09,26,7.70
2016,03,24,09,27,7.70
2016,03,24,09,28,7.70
2016,03,24,09,30,7.90
2016,03,24,09,31,7.90
2016,03,24,09,32,7.90
2016,03,24,09,33,7.90
2016,03,24,09,34,7.90
2016,03,24,09,35,8.10
2016,03,24,09,36,8.10
2016,03,24,09,37,8.10
2016,03,24,09,38,8.10
2016,03,24,09,39,8.10
2016,03,24,09,40,8.20
2016,03,24,09,41,8.20
2016,03,24,09,42,8.30
2016,03,24,09,43,8.30
2016,03,24,09,44,8.40
2016,03,24,09,45,8.40
2016,03,24,09,46,8.40
2016,03,24,09,47,8.60
2016,03,24,09,48,8.60
2016,03,24,09,49,8.60
2016,03,24,09,50,8.60
2016,03,24,09,51,8.70
2016,03,24,09,52,8.80
2016,03,24,09,53,8.80
2016,03,24,09,54,8.90
2016,03,24,09,55,8.90
2016,03,24,09,56,8.90
2016,03,24,09,57,8.90
2016,03,24,09,58,9.10
2016,03,24,09,59,9.10
2016,03,24,10,00,9.10
2016,03,24,10,01,9.20
2016,03,24,10,02,9.20
2016,03,24,10,03,9.30
2016,03,24,10,04,9.40
2016,03,24,10,05,9.40
2016,03,24,10,06,9.40
2016,03,24,10,07,9.60
2016,03,24,10,08,9.60
2016,03,24,10,09,9.70
2016,03,24,10,10,9.70
2016,03,24,10,11,9.80
2016,03,24,10,12,9.80
2016,03,24,10,13,9.80
2016,03,24,10,14,9.80
2016,03,24,10,15,9.90
2016,03,24,10,16,9.90
2016,03,24,10,17,10.00
2016,03,24,10,18,10.00
2016,03,24,10,19,10.00
2016,03,24,10,20,10.10
2016,03,24,10,21,10.10
2016,03,24,10,22,10.10
2016,03,24,10,23,10.10
2016,03,24,10,24,10.20
2016,03,24,10,25,10.20
2016,03,24,10,26,10.20
2016,03,24,10,27,10.20
2016,03,24,10,28,10.10
2016,03,24,10,29,10.10
2016,03,24,10,30,10.10
2016,03,24,10,31,10.10
2016,03,24,10,32,10.10
2016,03,24,10,33,10.10
2016,03,24,10,34,10.10
2016,03,24,10,35,10.10
2016,03,24,10,36,10.10
2016,03,24,10,37,10.10
2016,03,24,10,38,10.10
2016,03,24,10,39,10.10
2016,03,24,10,40,10.20
2016,03,24,10,41,10.20
2016,03,24,10,42,10.20
2016,03,24,10,43,10.20
2016,03,24,10,44,10.20
2016,03,24,10,45,10.10
2016,03,24,10,46,10.10
2016,03,24,10,47,10.10
2016,03,24,10,48,10.00
2016,03,24,10,49,10.00
2016,03,24,10,50,9.90
2016,03,24,10,51,9.90
2016,03,24,10,52,9.90
2016,03,24,10,53,9.80
2016,03,24,10,54,9.80
2016,03,24,10,55,9.80
2016,03,24,10,56,9.80
2016,03,24,10,57,9.80
2016,03,24,10,58,9.80
2016,03,24,10,59,9.80
2016,03,24,11,00,9.90
2016,03,24,11,01,9.90
2016,03,24,11,02,10.10
2016,03,24,11,03,10.10
2016,03,24,11,04,10.20
2016,03,24,11,05,10.20
2016,03,24,11,06,10.20
2016,03,24,11,07,10.30
2016,03,24,11,08,10.30
2016,03,24,11,09,10.40
2016,03,24,11,10,10.40
2016,03,24,11,11,10.50
2016,03,24,11,12,10.60
2016,03,24,11,13,10.60
2016,03,24,11,14,10.60
2016,03,24,11,15,10.60
2016,03,24,11,16,10.70
2016,03,24,11,17,10.80
2016,03,24,11,18,10.80
2016,03,24,11,19,10.80
2016,03,24,11,20,10.80
2016,03,24,11,21,10.80
2016,03,24,11,22,10.80
2016,03,24,11,23,10.90
2016,03,24,11,24,11.00
2016,03,24,11,25,11.00
2016,03,24,11,26,11.00
2016,03,24,11,27,11.00
2016,03,24,11,28,11.00
2016,03,24,11,29,11.10
2016,03,24,11,30,11.10
2016,03,24,11,31,11.20
2016,03,24,11,32,11.20
2016,03,24,11,33,11.20
2016,03,24,11,34,11.20
2016,03,24,11,35,11.20
2016,03,24,11,36,11.20
2016,03,24,11,37,11.20
2016,03,24,11,38,11.20
2016,03,24,11,39,11.20
2016,03,24,11,40,11.20
2016,03,24,11,41,11.20
2016,03,24,11,42,11.20
2016,03,24,11,43,11.20
2016,03,24,11,44,11.20
2016,03,24,11,45,11.30
2016,03,24,11,46,11.30
2016,03,24,11,47,11.30
2016,03,24,11,48,11.30
2016,03,24,11,49,11.30
2016,03,24,11,50,11.40
2016,03,24,11,51,11.40
2016,03,24,11,52,11.50
2016,03,24,11,53,11.50
2016,03,24,11,54,11.60
2016,03,24,11,55,11.60
2016,03,24,11,56,11.70
2016,03,24,11,57,11.80
2016,03,24,11,58,11.80
2016,03,24,12,00,11.80
2016,03,24,12,02,11.90
2016,03,24,12,03,11.90
2016,03,24,12,04,12.00
2016,03,24,12,05,12.00
2016,03,24,12,06,12.00
2016,03,24,12,07,11.90
2016,03,24,12,09,11.90
2016,03,24,12,11,11.80
2016,03,24,12,13,11.80
2016,03,24,12,14,11.60
2016,03,24,12,16,11.50
2016,03,24,12,18,11.40
2016,03,24,12,19,11.30
2016,03,24,12,21,11.30
2016,03,24,12,23,11.20
2016,03,24,12,24,11.20
2016,03,24,12,25,11.20
2016,03,24,12,26,11.20
2016,03,24,12,28,11.20
2016,03,24,12,30,11.20
2016,03,24,12,31,11.20
2016,03,24,12,33,11.30
2016,03,24,12,35,11.30
2016,03,24,12,37,11.40
2016,03,24,12,38,11.40
2016,03,24,12,40,11.50
2016,03,24,12,42,11.50
2016,03,24,12,43,11.50
2016,03,24,12,44,11.60
2016,03,24,12,45,11.60
2016,03,24,12,47,11.70
2016,03,24,12,48,11.70
2016,03,24,12,49,11.70
2016,03,24,12,50,11.80
2016,03,24,12,52,11.80
2016,03,24,12,53,11.70
2016,03,24,12,54,11.70
2016,03,24,12,55,11.70
2016,03,24,12,57,11.70
2016,03,24,12,58,11.70
2016,03,24,12,59,11.70
2016,03,24,13,00,11.70
2016,03,24,13,01,11.80
2016,03,24,13,02,11.80
2016,03,24,13,04,11.70
2016,03,24,13,05,11.60
2016,03,24,13,06,11.60
2016,03,24,13,07,11.60
2016,03,24,13,09,11.50
2016,03,24,13,10,11.60
2016,03,24,13,12,11.70
2016,03,24,13,14,11.70
2016,03,24,13,15,11.70
2016,03,24,13,16,11.70
2016,03,24,13,17,11.60
2016,03,24,13,19,11.50
2016,03,24,13,20,11.50
2016,03,24,13,21,11.40
2016,03,24,13,22,11.40
2016,03,24,13,23,11.30
2016,03,24,13,24,11.30
2016,03,24,13,26,11.30
2016,03,24,13,27,11.20
2016,03,24,13,28,11.10
2016,03,24,13,29,11.00
2016,03,24,13,31,10.90
2016,03,24,13,32,10.80
2016,03,24,13,33,10.80
2016,03,24,13,34,10.80
2016,03,24,13,35,10.80
2016,03,24,13,36,10.80
2016,03,24,13,38,10.80
2016,03,24,13,39,10.70
2016,03,24,13,40,10.70
2016,03,24,13,41,10.60
2016,03,24,13,42,10.60
2016,03,24,13,43,10.50
2016,03,24,13,44,10.50
2016,03,24,13,45,10.50
2016,03,24,13,46,10.50
2016,03,24,13,47,10.50
2016,03,24,13,48,10.50
2016,03,24,13,50,10.40
2016,03,24,13,51,10.40
2016,03,24,13,52,10.40
2016,03,24,13,53,10.30
2016,03,24,13,55,10.30
2016,03,24,13,56,10.30
2016,03,24,13,57,10.30
2016,03,24,13,58,10.30
2016,03,24,14,00,10.30
2016,03,24,14,01,10.30
2016,03,24,14,02,10.40
2016,03,24,14,03,10.40
2016,03,24,14,05,10.40
2016,03,24,14,06,10.40
2016,03,24,14,07,10.40
2016,03,24,14,08,10.40
2016,03,24,14,10,10.40
2016,03,24,14,11,10.30
2016,03,24,14,12,10.30
2016,03,24,14,13,10.30
2016,03,24,14,14,10.30
2016,03,24,14,15,10.30
2016,03,24,14,17,10.20
2016,03,24,14,18,10.20
2016,03,24,14,19,10.20
2016,03,24,14,20,10.20
2016,03,24,14,21,10.20
2016,03,24,14,22,10.30
2016,03,24,14,24,10.30
2016,03,24,14,25,10.30
2016,03,24,14,26,10.30
2016,03,24,14,27,10.30
2016,03,24,14,28,10.30
2016,03,24,14,29,10.30
2016,03,24,14,30,10.30
2016,03,24,14,31,10.30
2016,03,24,14,32,10.30
2016,03,24,14,33,10.30
2016,03,24,14,34,10.30
2016,03,24,14,35,10.30
2016,03,24,14,36,10.30
2016,03,24,14,37,10.30
2016,03,24,14,38,10.30
2016,03,24,14,39,10.30
2016,03,24,14,40,10.30
2016,03,24,14,41,10.40
2016,03,24,14,42,10.40
2016,03,24,14,43,10.40
2016,03,24,14,45,10.30
2016,03,24,14,46,10.30
2016,03,24,14,47,10.30
2016,03,24,14,48,10.30
2016,03,24,14,49,10.30
2016,03,24,14,50,10.30
2016,03,24,14,51,10.30
2016,03,24,14,52,10.30
2016,03,24,14,53,10.30
2016,03,24,14,54,10.30
2016,03,24,14,55,10.30
2016,03,24,14,56,10.20
2016,03,24,14,57,10.20
2016,03,24,14,58,10.20
2016,03,24,14,59,10.20
2016,03,24,15,00,10.10
2016,03,24,15,01,10.10
2016,03,24,15,02,10.10
2016,03,24,15,24,10.80
2016,03,24,15,25,10.80
2016,03,24,15,26,10.70
2016,03,24,15,27,10.70
2016,03,24,15,28,10.60
2016,03,24,15,29,10.60
2016,03,24,15,30,10.60
2016,03,24,15,31,10.50
2016,03,24,15,32,10.50
2016,03,24,15,33,10.50
2016,03,24,15,34,10.50
2016,03,24,15,35,10.50
2016,03,24,15,36,10.40
2016,03,24,15,37,10.40
2016,03,24,15,39,10.30
2016,03,24,15,40,10.30
2016,03,24,15,41,10.30
2016,03,24,15,42,10.30
2016,03,24,16,24,10.70
2016,03,24,16,25,10.70
2016,03,24,16,26,10.70
2016,03,24,16,27,10.80
2016,03,24,16,28,10.80
2016,03,24,16,29,10.80
2016,03,24,16,30,10.80
2016,03,24,16,31,10.80
2016,03,24,16,32,10.80
2016,03,24,16,33,10.80
2016,03,24,16,34,10.80
2016,03,24,16,35,10.80
2016,03,24,16,37,10.80
2016,03,24,16,38,10.80
2016,03,24,16,39,10.80
2016,03,24,16,40,10.80
2016,03,24,17,24,10.90
2016,03,24,17,25,10.90
2016,03,24,17,26,10.90
2016,03,24,17,27,10.80
2016,03,24,17,28,10.80
2016,03,24,17,29,10.80
2016,03,24,17,30,10.80
2016,03,24,17,31,10.80
2016,03,24,17,32,10.80
2016,03,24,17,33,10.80
2016,03,24,17,34,10.80
2016,03,24,17,35,10.80
2016,03,24,17,36,10.80
2016,03,24,17,37,10.80
2016,03,24,17,38,10.80
2016,03,24,17,39,10.80
2016,03,24,17,40,10.80
2016,03,24,17,42,10.70
2016,03,24,17,43,10.70
2016,03,24,17,44,10.70
2016,03,24,17,45,10.60
2016,03,24,17,47,10.50
2016,03,24,17,49,10.50
2016,03,24,17,50,10.50
2016,03,24,17,51,10.50
2016,03,24,17,52,10.40
2016,03,24,17,54,10.40
2016,03,24,17,55,10.40
2016,03,24,17,56,10.40
2016,03,24,17,57,10.40
2016,03,24,17,58,10.40
2016,03,24,17,59,10.40
2016,03,24,18,01,10.40
2016,03,24,18,02,10.40
2016,03,24,18,03,10.40
2016,03,24,18,04,10.40
2016,03,24,18,06,10.40
2016,03,24,18,08,10.40
2016,03,24,18,09,10.40
2016,03,24,18,10,10.40
2016,03,24,18,11,10.40
2016,03,24,18,13,10.30
2016,03,24,18,14,10.30
2016,03,24,18,15,10.30
2016,03,24,18,16,10.30
2016,03,24,18,18,10.30
2016,03,24,18,19,10.30
2016,03,24,18,20,10.30
2016,03,24,18,21,10.30
2016,03,24,18,22,10.30
2016,03,24,18,23,10.30
2016,03,24,18,25,10.30
2016,03,24,18,26,10.30
2016,03,24,18,27,10.30
2016,03,24,18,28,10.20
2016,03,24,18,29,10.20
2016,03,24,18,30,10.20
2016,03,24,18,32,10.10
2016,03,24,18,33,10.00
2016,03,24,18,34,10.00
2016,03,24,18,35,9.90
2016,03,24,18,37,9.80
2016,03,24,18,38,9.80
2016,03,24,18,39,9.80
2016,03,24,18,40,9.80
2016,03,24,18,41,9.80
2016,03,24,18,42,9.80
2016,03,24,18,44,9.80
2016,03,24,18,45,9.80
2016,03,24,18,46,9.70
2016,03,24,18,47,9.70
2016,03,24,18,48,9.70
2016,03,24,18,49,9.70
2016,03,24,18,51,9.70
2016,03,24,18,52,9.60
2016,03,24,18,53,9.60
2016,03,24,18,54,9.60
2016,03,24,18,56,9.60
2016,03,24,18,57,9.60
2016,03,24,18,58,9.60
2016,03,24,18,59,9.60
2016,03,24,19,00,9.60
2016,03,24,19,01,9.60
2016,03,24,19,03,9.60
2016,03,24,19,04,9.60
2016,03,24,19,05,9.40
2016,03,24,19,06,9.40
2016,03,24,19,08,9.40
2016,03,24,19,09,9.40
2016,03,24,19,10,9.40
2016,03,24,19,11,9.40
2016,03,24,19,12,9.40
2016,03,24,19,13,9.40
2016,03,24,19,15,9.30
2016,03,24,19,16,9.30
2016,03,24,19,17,9.30
2016,03,24,19,18,9.30
2016,03,24,19,20,9.30
2016,03,24,19,21,9.30
2016,03,24,19,22,9.20
2016,03,24,19,23,9.20
2016,03,24,19,25,9.20
2016,03,24,19,26,9.20
2016,03,24,19,27,9.10
2016,03,24,19,28,9.10
2016,03,24,19,29,9.10
2016,03,24,19,30,9.10
2016,03,24,19,31,9.10
2016,03,24,19,32,9.10
2016,03,24,19,33,9.10
2016,03,24,19,34,9.10
2016,03,24,19,35,9.10
2016,03,24,19,37,9.10
2016,03,24,19,38,9.10
2016,03,24,19,39,9.10
2016,03,24,19,40,9.10
2016,03,24,19,42,9.10
2016,03,24,19,43,8.90
2016,03,24,19,44,8.90
2016,03,24,19,45,8.90
2016,03,24,19,47,8.90
2016,03,24,19,48,8.90
2016,03,24,19,49,8.80
2016,03,24,19,50,8.80
2016,03,24,19,52,8.80
2016,03,24,19,53,8.70
2016,03,24,19,54,8.70
2016,03,24,19,55,8.70
2016,03,24,19,57,8.60
2016,03,24,19,58,8.60
2016,03,24,19,59,8.60
2016,03,24,20,00,8.60
2016,03,24,20,01,8.40
2016,03,24,20,02,8.40
2016,03,24,20,03,8.40
2016,03,24,20,04,8.40
2016,03,24,20,05,8.40
2016,03,24,20,06,8.40
2016,03,24,20,07,8.30
2016,03,24,20,08,8.30
2016,03,24,20,09,8.30
2016,03,24,20,10,8.30
2016,03,24,20,11,8.30
2016,03,24,20,12,8.20
2016,03,24,20,14,8.20
2016,03,24,20,15,8.20
2016,03,24,20,16,8.20
2016,03,24,20,17,8.10
2016,03,24,20,19,8.10
2016,03,24,20,20,8.10
2016,03,24,20,21,8.10
2016,03,24,20,22,8.10
2016,03,24,20,24,8.10
2016,03,24,20,25,8.10
2016,03,24,20,26,8.10
2016,03,24,20,27,7.90
2016,03,24,20,29,7.90
2016,03,24,20,30,7.90
2016,03,24,20,31,7.90
2016,03,24,20,32,7.90
2016,03,24,20,33,7.90
2016,03,24,20,34,7.90
2016,03,24,20,35,7.90
2016,03,24,20,36,7.90
2016,03,24,20,37,7.90
2016,03,24,20,38,7.90
2016,03,24,20,39,7.90
2016,03,24,20,40,8.10
2016,03,24,20,41,8.10
2016,03,24,20,42,8.10
2016,03,24,20,43,8.10
2016,03,24,20,44,8.10
2016,03,24,20,45,8.10
2016,03,24,20,46,8.10
2016,03,24,20,47,8.10
2016,03,24,20,48,8.10
2016,03,24,20,49,8.10
2016,03,24,20,50,8.10
2016,03,24,20,51,8.10
2016,03,24,20,52,8.10
2016,03,24,20,53,8.10
2016,03,24,20,54,8.10
2016,03,24,20,55,8.10
2016,03,24,20,56,8.10
2016,03,24,20,57,8.10
2016,03,24,20,58,8.10
2016,03,24,20,59,8.10
2016,03,24,21,00,8.10
2016,03,24,21,02,8.10
2016,03,24,21,03,7.90
2016,03,24,21,04,7.90
2016,03,24,21,05,7.90
2016,03,24,21,06,7.90
2016,03,24,21,07,7.90
2016,03,24,21,08,7.90
2016,03,24,21,09,7.90
2016,03,24,21,10,7.90
2016,03,24,21,11,7.90
2016,03,24,21,12,7.90
2016,03,24,21,13,7.90
2016,03,24,21,14,7.90
2016,03,24,21,15,7.90
2016,03,24,21,16,7.90
2016,03,24,21,17,7.90
2016,03,24,21,18,7.90
2016,03,24,21,19,7.90
2016,03,24,21,20,7.90
2016,03,24,21,21,7.90
2016,03,24,21,22,7.90
2016,03,24,21,23,7.90
2016,03,24,21,24,7.90
2016,03,24,21,25,7.90
2016,03,24,21,26,7.90
2016,03,24,21,27,7.90
2016,03,24,21,28,7.90
2016,03,24,21,29,7.90
2016,03,24,21,30,7.90
2016,03,24,21,31,7.90
2016,03,24,21,32,7.90
2016,03,24,21,33,7.90
2016,03,24,21,34,7.90
2016,03,24,21,35,7.90
2016,03,24,21,36,7.90
2016,03,24,21,37,7.90
2016,03,24,21,38,7.90
2016,03,24,21,39,7.90
2016,03,24,21,40,7.90
2016,03,24,21,41,7.90
2016,03,24,21,42,7.90
2016,03,24,21,43,7.90
2016,03,24,21,44,7.90
2016,03,24,21,45,7.90
2016,03,24,21,46,7.90
2016,03,24,21,47,7.90
2016,03,24,21,48,7.90